Nathaniel B. Palmer — WBP3210 — position and weather

sailwx.info

Track history (hours):
 
Tides and Currents Weather Stations Pressure Air Temp Water Temp Dewpoint Dewpoint Depression Visibility Wind Speed Wind Dir Waves Ship Positions

Oceanographic research ship Nathaniel B. Palmer (USA)

Contact: Ethan Norris, ethan.norris.contractor@usap.gov

Detailed information on ship capabilities available from University of Delaware's Ocean Information Center and ARCUS's ALIAS (Arctic Logistics Information and Support) project.

Owner: OFFSHORE SERVICE VESSELS, GALLIANO, LA. More information available from US FCC via Universal Licensing System and Coast Guard Vessel Documentation Center.

Last reported at 2016-Feb-09 04:00 UTC. Time now 2016-Feb-09 05:52 UTC.
Position S 52°24' W 068°48'.

Type: Other ship. MMSI: 366610000.

Wind from 290 at 31 knots

Barometer 995.1 mb
Air temperature 12.9 ° C
Water temperature -0.0 ° C

Date/timePositionNaut miles runAvg speedWind from/ knotsBaromVisibWave heightAir tempDewpointWater temp
2016-Feb-09 04:00S 52°24' W 068°48'1312.5 290 / 31995.1 12.9 -0.0
2016-Feb-09 03:00S 52°18' W 069°06'904904.1 280 / 28995.4 13.7 -0.0
2016-Feb-09 02:00S 41°06' W 054°24'929464.4 300 / 19782.0 10.5 -0.0
2016-Feb-09 00:00S 52°30' W 069°42'1212.5 260 / 17996.6 12.5 3.7
2016-Feb-08 23:00S 52°36' W 070°00'1919.2 260 / 17997.2 12.2 3.7
2016-Feb-08 22:00S 52°42' W 070°30'1414.0 280 / 22996.8 11.6 3.7
2016-Feb-08 21:00S 52°54' W 070°42'0 0.0 280 / 23997.4 12.5 3.7
2016-Feb-08 17:00S 52°54' W 070°42'0 0.0 270 / 23997.6 13.3 3.7
2016-Feb-08 15:00S 52°54' W 070°42'0 0.0 260 / 18997.7 11.6 3.7
2016-Feb-08 13:00S 52°54' W 070°42'14 2.0 280 / 18997.1 11.5 3.7
2016-Feb-08 06:00S 53°06' W 070°54'0 0.0 290 / 17993.2 11.0 3.7
2016-Feb-08 05:00S 53°06' W 070°54'0 0.0 290 / 13993.9 11.3 3.7
2016-Feb-08 04:00S 53°06' W 070°54'0 0.0 290 / 10994.5 11.7 3.7
2016-Feb-08 03:00S 53°06' W 070°54'0 0.0 280 / 7995.0 11.6 3.7
2016-Feb-08 02:00S 53°06' W 070°54'0 0.0 240 / 6995.6 12.0 3.7
2016-Feb-08 01:00S 53°06' W 070°54'0 0.0 300 / 9995.4 13.8 3.7
2016-Feb-08 00:00S 53°06' W 070°54'0 0.0 030 / 9995.7 13.3 3.7
2016-Feb-07 23:00S 53°06' W 070°54'0 0.0 360 / 10996.3 15.5 3.7
2016-Feb-07 22:00S 53°06' W 070°54'0 0.0 010 / 7997.2 15.3 3.7
2016-Feb-07 21:00S 53°06' W 070°54'0 0.0 020 / 5998.3 15.7 3.7
2016-Feb-07 20:00S 53°06' W 070°54'0 0.0 320 / 8999.2 16.1 3.7
2016-Feb-07 19:00S 53°06' W 070°54'0 0.0 310 / 111000.1 16.2 3.7
2016-Feb-07 17:00S 53°06' W 070°54'0 0.0 310 / 111001.9 15.4 3.7
2016-Feb-07 16:00S 53°06' W 070°54'0 0.0 290 / 121002.7 15.2 3.7
2016-Feb-07 15:00S 53°06' W 070°54'0 0.0 310 / 61003.8 14.8 3.7
2016-Feb-07 13:00S 53°06' W 070°54'0 0.0 080 / 41005.6 12.8 3.7
2016-Feb-07 12:00S 53°06' W 070°54'0 0.0 290 / 41006.3 13.4 3.7
2016-Feb-07 11:00S 53°06' W 070°54'0 0.0 300 / 131006.2 13.5 3.7
2016-Feb-07 06:00S 53°06' W 070°54'0 0.0 270 / 71009.1 13.3 3.7
2016-Feb-07 02:00S 53°06' W 070°54'0 0.0 350 / 31011.7 15.1 3.7
2016-Feb-06 23:00S 53°06' W 070°54'0 0.0 170 / 61012.7 13.1 3.7
2016-Feb-06 22:00S 53°06' W 070°54'0 0.0 250 / 91013.0 20.4 3.7
2016-Feb-06 19:00S 53°06' W 070°54'0 0.0 260 / 61015.2 15.8 3.7
2016-Feb-06 18:00S 53°06' W 070°54'0 0.0 190 / 71016.2 13.4 3.7
2016-Feb-06 17:00S 53°06' W 070°54'0 0.0 200 / 61017.1 13.0 3.7
2016-Feb-06 16:00S 53°06' W 070°54'0 0.0 200 / 51017.9 13.2 3.7
2016-Feb-06 11:00S 53°06' W 070°54'0 0.0 160 / 31020.9 11.0 3.7
2016-Feb-06 08:00S 53°06' W 070°54'0 0.0 290 / 11021.7 10.7 3.7
2016-Feb-06 06:00S 53°06' W 070°54'0 0.0 200 / 11022.7 12.4 3.7
2016-Feb-06 03:00S 53°06' W 070°54'0 0.0 270 / 51023.6 14.4 3.7
2016-Feb-05 19:00S 53°06' W 070°54'0 0.0 110 / 61023.8 13.5 3.7
2016-Feb-05 18:00S 53°06' W 070°54'0 0.0 240 / 101023.8 16.4 3.7
2016-Feb-05 09:00S 53°06' W 070°54'0 0.0 260 / 131022.0 11.9 3.7
2016-Feb-05 07:00S 53°06' W 070°54'0 0.0 260 / 81022.2 11.5 3.7
2016-Feb-05 00:00S 53°06' W 070°54'0 0.0 040 / 51021.1 11.4 3.7
2016-Feb-04 23:00S 53°06' W 070°54'0 0.0 070 / 61020.7 10.8 3.7
2016-Feb-04 19:00S 53°06' W 070°54'0 0.0 060 / 81020.2 10.0 3.7
2016-Feb-04 18:00S 53°06' W 070°54'0 0.0 060 / 71020.4 10.1 3.7
2016-Feb-04 17:00S 53°06' W 070°54'0 0.0 090 / 91020.2 10.3 3.7
2016-Feb-04 16:00S 53°06' W 070°54'0 0.0 160 / 71020.2 12.2 3.7
2016-Feb-04 15:00S 53°06' W 070°54'0 0.0 250 / 71020.0 11.8 3.7
2016-Feb-04 14:00S 53°06' W 070°54'0 0.0 260 / 101019.7 10.6 3.7
2016-Feb-04 12:00S 53°06' W 070°54'0 0.0 270 / 91019.2 8.9 3.7
2016-Feb-04 11:00S 53°06' W 070°54'0 0.0 280 / 81018.8 7.2 3.7
2016-Feb-04 10:00S 53°06' W 070°54'0 0.0 290 / 71018.1 6.3 3.7
2016-Feb-04 07:00S 53°06' W 070°54'0 0.0 260 / 51015.2 7.1 3.7
2016-Feb-03 11:00S 53°06' W 070°54'0 0.0 220 / 51000.2 8.2 3.7
2016-Feb-03 09:00S 53°06' W 070°54'0 0.0 150 / 121000.2 8.2 3.7
2016-Feb-03 08:00S 53°06' W 070°54'0 0.0 150 / 121000.3 8.5 3.7
2016-Feb-03 07:00S 53°06' W 070°54'0 0.0 150 / 111002.0 8.6 3.7
2016-Feb-03 06:00S 53°06' W 070°54'0 0.0 150 / 131002.9 8.6 3.7
2016-Feb-03 02:00S 53°06' W 070°54'0 0.0 080 / 91004.7 10.3 3.7
2016-Feb-02 23:00S 53°06' W 070°54'9 3.1 060 / 81005.2 11.7 3.7
2016-Feb-02 20:00S 53°00' W 070°42'3511.6 070 / 231007.8 12.9 3.7
2016-Feb-02 17:00S 52°36' W 070°00'25 8.3 070 / 271011.7 11.7 3.7
2016-Feb-02 14:00S 52°24' W 069°24'29 9.8 060 / 191015.7 11.0 3.7
2016-Feb-02 11:00S 52°24' W 068°36'9 9.5 050 / 171018.2 9.2 3.7
2016-Feb-02 10:00S 52°30' W 068°24'4 3.7 060 / 161018.7 9.0 3.7
2016-Feb-02 09:00S 52°30' W 068°18'16 8.1 060 / 171018.5 9.0 3.7
2016-Feb-02 07:00S 52°42' W 068°00'9 9.4 080 / 171018.7 9.0 3.7
2016-Feb-02 06:00S 52°48' W 067°48'7 7.0 080 / 181018.7 9.1 3.7
2016-Feb-02 05:00S 52°54' W 067°42'9 9.4 080 / 181018.8 9.3 3.7
2016-Feb-02 04:00S 53°00' W 067°30'7 7.0 090 / 171018.6 9.6 3.7
2016-Feb-02 03:00S 53°06' W 067°24'28 9.4 100 / 181018.1 9.9 3.7
2016-Feb-02 00:00S 53°24' W 066°48'9 9.3 120 / 171015.2 10.1 3.7
2016-Feb-01 23:00S 53°30' W 066°36'3210.7 140 / 211013.8 11.1 3.7
2016-Feb-01 20:00S 53°54' W 066°00'9410.4 170 / 281009.6 10.2 3.7
2016-Feb-01 11:00S 55°18' W 064°48'2412.1 010 / 131007.1 7.9 3.7
2016-Feb-01 09:00S 55°42' W 064°42'1212.5 050 / 131010.0 6.9 3.7
2016-Feb-01 08:00S 55°54' W 064°36'6 6.0 010 / 111011.5 6.9 3.7
2016-Feb-01 07:00S 56°00' W 064°36'1212.5 320 / 161011.9 6.6 3.7
2016-Feb-01 06:00S 56°12' W 064°30'3612.1 300 / 191011.8 6.4 3.7
2016-Feb-01 03:00S 56°48' W 064°24'7 6.8 280 / 271010.6 6.7 3.7
2016-Feb-01 02:00S 56°54' W 064°18'1212.4 280 / 301009.6 6.7 3.7
2016-Feb-01 01:00S 57°06' W 064°12'37 9.1 280 / 321008.4 6.7 3.7
2016-Jan-31 21:00S 57°42' W 064°00'3010.1 290 / 331004.6 5.9 3.7
2016-Jan-31 18:00S 58°12' W 063°54'7 6.8 290 / 341001.7 5.7 3.7
2016-Jan-31 17:00S 58°18' W 063°48'18 9.0 290 / 351000.6 5.6 3.6
2016-Jan-31 15:00S 58°36' W 063°48'1212.4 300 / 34999.3 5.0 2.8
2016-Jan-31 14:00S 58°48' W 063°42'6 6.0 300 / 33998.6 4.5 2.1
2016-Jan-31 13:00S 58°54' W 063°42'1212.0 300 / 28998.8 4.0 1.9
2016-Jan-31 12:00S 59°06' W 063°42'6 6.0 310 / 26998.9 3.6 1.7
2016-Jan-31 11:00S 59°12' W 063°42'6110.1 310 / 25999.2 3.2 1.6
2016-Jan-31 05:00S 60°12' W 063°24'7 6.7 290 / 29994.7 3.1 1.6
2016-Jan-31 04:00S 60°18' W 063°18'19 6.3 300 / 27994.4 2.9 1.5
2016-Jan-31 01:00S 60°36' W 063°06'1212.4 310 / 22995.0 2.5 1.1
2016-Jan-31 00:00S 60°48' W 063°00'7 6.7 320 / 23995.0 2.5 1.1
2016-Jan-30 23:00S 60°54' W 062°54'1212.0 310 / 26994.7 2.8 1.2
2016-Jan-30 22:00S 61°06' W 062°54'7 6.7 310 / 26994.2 2.9 1.0
2016-Jan-30 21:00S 61°12' W 062°48'67 9.5 310 / 28993.6 3.1 1.2
2016-Jan-30 14:00S 62°18' W 062°30'7 6.6 310 / 33986.7 2.6 0.8
2016-Jan-30 13:00S 62°24' W 062°24'65 9.3 320 / 35987.1 2.7 0.8
2016-Jan-30 06:00S 63°24' W 061°30'7 6.6 290 / 25992.3 1.8 1.0
2016-Jan-30 05:00S 63°30' W 061°24'   290 / 25991.9 1.7 0.9
Track history (hours):
 
Tides and Currents Weather Stations Pressure Air Temp Water Temp Dewpoint Dewpoint Depression Visibility Wind Speed Wind Dir Waves Ship Positions

Oceanographic research ship Nathaniel B. Palmer (USA)

Contact: Ethan Norris, ethan.norris.contractor@usap.gov

Detailed information on ship capabilities available from University of Delaware's Ocean Information Center and ARCUS's ALIAS (Arctic Logistics Information and Support) project.

Owner: OFFSHORE SERVICE VESSELS, GALLIANO, LA. More information available from US FCC via Universal Licensing System and Coast Guard Vessel Documentation Center.

Last reported at 2016-Feb-09 04:00 UTC. Time now 2016-Feb-09 05:52 UTC.
Position S 52°24' W 068°48'.

Type: Other ship. MMSI: 366610000.

Wind from 290 at 31 knots

Barometer 995.1 mb
Air temperature 12.9 ° C
Water temperature -0.0 ° C

Date/timePositionNaut miles runAvg speedWind from/ knotsBaromVisibWave heightAir tempDewpointWater temp
2016-Feb-09 04:00S 52°24' W 068°48'1312.5 290 / 31995.1 12.9 -0.0
2016-Feb-09 03:00S 52°18' W 069°06'904904.1 280 / 28995.4 13.7 -0.0
2016-Feb-09 02:00S 41°06' W 054°24'929464.4 300 / 19782.0 10.5 -0.0
2016-Feb-09 00:00S 52°30' W 069°42'1212.5 260 / 17996.6 12.5 3.7
2016-Feb-08 23:00S 52°36' W 070°00'1919.2 260 / 17997.2 12.2 3.7
2016-Feb-08 22:00S 52°42' W 070°30'1414.0 280 / 22996.8 11.6 3.7
2016-Feb-08 21:00S 52°54' W 070°42'0 0.0 280 / 23997.4 12.5 3.7
2016-Feb-08 17:00S 52°54' W 070°42'0 0.0 270 / 23997.6 13.3 3.7
2016-Feb-08 15:00S 52°54' W 070°42'0 0.0 260 / 18997.7 11.6 3.7
2016-Feb-08 13:00S 52°54' W 070°42'14 2.0 280 / 18997.1 11.5 3.7
2016-Feb-08 06:00S 53°06' W 070°54'0 0.0 290 / 17993.2 11.0 3.7
2016-Feb-08 05:00S 53°06' W 070°54'0 0.0 290 / 13993.9 11.3 3.7
2016-Feb-08 04:00S 53°06' W 070°54'0 0.0 290 / 10994.5 11.7 3.7
2016-Feb-08 03:00S 53°06' W 070°54'0 0.0 280 / 7995.0 11.6 3.7
2016-Feb-08 02:00S 53°06' W 070°54'0 0.0 240 / 6995.6 12.0 3.7
2016-Feb-08 01:00S 53°06' W 070°54'0 0.0 300 / 9995.4 13.8 3.7
2016-Feb-08 00:00S 53°06' W 070°54'0 0.0 030 / 9995.7 13.3 3.7
2016-Feb-07 23:00S 53°06' W 070°54'0 0.0 360 / 10996.3 15.5 3.7
2016-Feb-07 22:00S 53°06' W 070°54'0 0.0 010 / 7997.2 15.3 3.7
2016-Feb-07 21:00S 53°06' W 070°54'0 0.0 020 / 5998.3 15.7 3.7
2016-Feb-07 20:00S 53°06' W 070°54'0 0.0 320 / 8999.2 16.1 3.7
2016-Feb-07 19:00S 53°06' W 070°54'0 0.0 310 / 111000.1 16.2 3.7
2016-Feb-07 17:00S 53°06' W 070°54'0 0.0 310 / 111001.9 15.4 3.7
2016-Feb-07 16:00S 53°06' W 070°54'0 0.0 290 / 121002.7 15.2 3.7
2016-Feb-07 15:00S 53°06' W 070°54'0 0.0 310 / 61003.8 14.8 3.7
2016-Feb-07 13:00S 53°06' W 070°54'0 0.0 080 / 41005.6 12.8 3.7
2016-Feb-07 12:00S 53°06' W 070°54'0 0.0 290 / 41006.3 13.4 3.7
2016-Feb-07 11:00S 53°06' W 070°54'0 0.0 300 / 131006.2 13.5 3.7
2016-Feb-07 06:00S 53°06' W 070°54'0 0.0 270 / 71009.1 13.3 3.7
2016-Feb-07 02:00S 53°06' W 070°54'0 0.0 350 / 31011.7 15.1 3.7
2016-Feb-06 23:00S 53°06' W 070°54'0 0.0 170 / 61012.7 13.1 3.7
2016-Feb-06 22:00S 53°06' W 070°54'0 0.0 250 / 91013.0 20.4 3.7
2016-Feb-06 19:00S 53°06' W 070°54'0 0.0 260 / 61015.2 15.8 3.7
2016-Feb-06 18:00S 53°06' W 070°54'0 0.0 190 / 71016.2 13.4 3.7
2016-Feb-06 17:00S 53°06' W 070°54'0 0.0 200 / 61017.1 13.0 3.7
2016-Feb-06 16:00S 53°06' W 070°54'0 0.0 200 / 51017.9 13.2 3.7
2016-Feb-06 11:00S 53°06' W 070°54'0 0.0 160 / 31020.9 11.0 3.7
2016-Feb-06 08:00S 53°06' W 070°54'0 0.0 290 / 11021.7 10.7 3.7
2016-Feb-06 06:00S 53°06' W 070°54'0 0.0 200 / 11022.7 12.4 3.7
2016-Feb-06 03:00S 53°06' W 070°54'0 0.0 270 / 51023.6 14.4 3.7
2016-Feb-05 19:00S 53°06' W 070°54'0 0.0 110 / 61023.8 13.5 3.7
2016-Feb-05 18:00S 53°06' W 070°54'0 0.0 240 / 101023.8 16.4 3.7
2016-Feb-05 09:00S 53°06' W 070°54'0 0.0 260 / 131022.0 11.9 3.7
2016-Feb-05 07:00S 53°06' W 070°54'0 0.0 260 / 81022.2 11.5 3.7
2016-Feb-05 00:00S 53°06' W 070°54'0 0.0 040 / 51021.1 11.4 3.7
2016-Feb-04 23:00S 53°06' W 070°54'0 0.0 070 / 61020.7 10.8 3.7
2016-Feb-04 19:00S 53°06' W 070°54'0 0.0 060 / 81020.2 10.0 3.7
2016-Feb-04 18:00S 53°06' W 070°54'0 0.0 060 / 71020.4 10.1 3.7
2016-Feb-04 17:00S 53°06' W 070°54'0 0.0 090 / 91020.2 10.3 3.7
2016-Feb-04 16:00S 53°06' W 070°54'0 0.0 160 / 71020.2 12.2 3.7
2016-Feb-04 15:00S 53°06' W 070°54'0 0.0 250 / 71020.0 11.8 3.7
2016-Feb-04 14:00S 53°06' W 070°54'0 0.0 260 / 101019.7 10.6 3.7
2016-Feb-04 12:00S 53°06' W 070°54'0 0.0 270 / 91019.2 8.9 3.7
2016-Feb-04 11:00S 53°06' W 070°54'0 0.0 280 / 81018.8 7.2 3.7
2016-Feb-04 10:00S 53°06' W 070°54'0 0.0 290 / 71018.1 6.3 3.7
2016-Feb-04 07:00S 53°06' W 070°54'0 0.0 260 / 51015.2 7.1 3.7
2016-Feb-03 11:00S 53°06' W 070°54'0 0.0 220 / 51000.2 8.2 3.7
2016-Feb-03 09:00S 53°06' W 070°54'0 0.0 150 / 121000.2 8.2 3.7
2016-Feb-03 08:00S 53°06' W 070°54'0 0.0 150 / 121000.3 8.5 3.7
2016-Feb-03 07:00S 53°06' W 070°54'0 0.0 150 / 111002.0 8.6 3.7
2016-Feb-03 06:00S 53°06' W 070°54'0 0.0 150 / 131002.9 8.6 3.7
2016-Feb-03 02:00S 53°06' W 070°54'0 0.0 080 / 91004.7 10.3 3.7
2016-Feb-02 23:00S 53°06' W 070°54'9 3.1 060 / 81005.2 11.7 3.7
2016-Feb-02 20:00S 53°00' W 070°42'3511.6 070 / 231007.8 12.9 3.7
2016-Feb-02 17:00S 52°36' W 070°00'25 8.3 070 / 271011.7 11.7 3.7
2016-Feb-02 14:00S 52°24' W 069°24'29 9.8 060 / 191015.7 11.0 3.7
2016-Feb-02 11:00S 52°24' W 068°36'9 9.5 050 / 171018.2 9.2 3.7
2016-Feb-02 10:00S 52°30' W 068°24'4 3.7 060 / 161018.7 9.0 3.7
2016-Feb-02 09:00S 52°30' W 068°18'16 8.1 060 / 171018.5 9.0 3.7
2016-Feb-02 07:00S 52°42' W 068°00'9 9.4 080 / 171018.7 9.0 3.7
2016-Feb-02 06:00S 52°48' W 067°48'7 7.0 080 / 181018.7 9.1 3.7
2016-Feb-02 05:00S 52°54' W 067°42'9 9.4 080 / 181018.8 9.3 3.7
2016-Feb-02 04:00S 53°00' W 067°30'7 7.0 090 / 171018.6 9.6 3.7
2016-Feb-02 03:00S 53°06' W 067°24'28 9.4 100 / 181018.1 9.9 3.7
2016-Feb-02 00:00S 53°24' W 066°48'9 9.3 120 / 171015.2 10.1 3.7
2016-Feb-01 23:00S 53°30' W 066°36'3210.7 140 / 211013.8 11.1 3.7
2016-Feb-01 20:00S 53°54' W 066°00'9410.4 170 / 281009.6 10.2 3.7
2016-Feb-01 11:00S 55°18' W 064°48'2412.1 010 / 131007.1 7.9 3.7
2016-Feb-01 09:00S 55°42' W 064°42'1212.5 050 / 131010.0 6.9 3.7
2016-Feb-01 08:00S 55°54' W 064°36'6 6.0 010 / 111011.5 6.9 3.7
2016-Feb-01 07:00S 56°00' W 064°36'1212.5 320 / 161011.9 6.6 3.7
2016-Feb-01 06:00S 56°12' W 064°30'3612.1 300 / 191011.8 6.4 3.7
2016-Feb-01 03:00S 56°48' W 064°24'7 6.8 280 / 271010.6 6.7 3.7
2016-Feb-01 02:00S 56°54' W 064°18'1212.4 280 / 301009.6 6.7 3.7
2016-Feb-01 01:00S 57°06' W 064°12'37 9.1 280 / 321008.4 6.7 3.7
2016-Jan-31 21:00S 57°42' W 064°00'3010.1 290 / 331004.6 5.9 3.7
2016-Jan-31 18:00S 58°12' W 063°54'7 6.8 290 / 341001.7 5.7 3.7
2016-Jan-31 17:00S 58°18' W 063°48'18 9.0 290 / 351000.6 5.6 3.6
2016-Jan-31 15:00S 58°36' W 063°48'1212.4 300 / 34999.3 5.0 2.8
2016-Jan-31 14:00S 58°48' W 063°42'6 6.0 300 / 33998.6 4.5 2.1
2016-Jan-31 13:00S 58°54' W 063°42'1212.0 300 / 28998.8 4.0 1.9
2016-Jan-31 12:00S 59°06' W 063°42'6 6.0 310 / 26998.9 3.6 1.7
2016-Jan-31 11:00S 59°12' W 063°42'6110.1 310 / 25999.2 3.2 1.6
2016-Jan-31 05:00S 60°12' W 063°24'7 6.7 290 / 29994.7 3.1 1.6
2016-Jan-31 04:00S 60°18' W 063°18'19 6.3 300 / 27994.4 2.9 1.5
2016-Jan-31 01:00S 60°36' W 063°06'1212.4 310 / 22995.0 2.5 1.1
2016-Jan-31 00:00S 60°48' W 063°00'7 6.7 320 / 23995.0 2.5 1.1
2016-Jan-30 23:00S 60°54' W 062°54'1212.0 310 / 26994.7 2.8 1.2
2016-Jan-30 22:00S 61°06' W 062°54'7 6.7 310 / 26994.2 2.9 1.0
2016-Jan-30 21:00S 61°12' W 062°48'67 9.5 310 / 28993.6 3.1 1.2
2016-Jan-30 14:00S 62°18' W 062°30'7 6.6 310 / 33986.7 2.6 0.8
2016-Jan-30 13:00S 62°24' W 062°24'65 9.3 320 / 35987.1 2.7 0.8
2016-Jan-30 06:00S 63°24' W 061°30'7 6.6 290 / 25992.3 1.8 1.0
2016-Jan-30 05:00S 63°30' W 061°24'   290 / 25991.9 1.7 0.9

Dump ship's entire track history